| time (UTC) | temp F | wind direction | speed MPH | gust MPH | rain 1hr in | rain 24hr in | rain mn in | humidity % | barometer mb |
| 20260510062555 | 71 | 152 | 0.0 | 2.0 | 0.00 | 0.00 | 0.00 | 72 | 1013.3 |
| 20260510062055 | 71 | 153 | 0.0 | 2.0 | 0.00 | 0.00 | 0.00 | 71 | 1013.3 |
| 20260510061555 | 71 | 153 | 1.0 | 2.0 | 0.00 | 0.00 | 0.00 | 70 | 1013.4 |
| 20260510061055 | 72 | 109 | 0.0 | 5.0 | 0.00 | 0.00 | 0.00 | 69 | 1013.4 |
| 20260510060600 | 72 | 108 | 2.0 | 5.0 | 0.00 | 0.00 | 0.00 | 69 | 1013.4 |
| 20260510060056 | 72 | 105 | 2.0 | 5.0 | 0.00 | 0.00 | 0.00 | 69 | 1013.3 |
| 20260510055554 | 72 | 98 | 3.0 | 5.0 | 0.00 | 0.00 | 0.00 | 69 | 1013.3 |
| 20260510055053 | 72 | 82 | 2.0 | 5.0 | 0.00 | 0.00 | 0.00 | 69 | 1013.4 |
| 20260510054554 | 72 | 140 | 1.0 | 4.0 | 0.00 | 0.00 | 0.00 | 69 | 1013.4 |
| 20260510054054 | 72 | 152 | 1.0 | 3.0 | 0.00 | 0.00 | 0.00 | 69 | 1013.3 |
| 20260510053553 | 73 | 159 | 1.0 | 4.0 | 0.00 | 0.00 | 0.00 | 68 | 1013.4 |
| 20260510053055 | 73 | 159 | 1.0 | 3.0 | 0.00 | 0.00 | 0.00 | 68 | 1013.4 |
| 20260510052553 | 73 | 159 | 1.0 | 2.0 | 0.00 | 0.00 | 0.00 | 68 | 1013.5 |
| 20260510052053 | 73 | 159 | 1.0 | 2.0 | 0.00 | 0.00 | 0.00 | 67 | 1013.4 |
| 20260510051556 | 74 | 159 | 1.0 | 6.0 | 0.00 | 0.00 | 0.00 | 67 | 1013.3 |
| 20260510051054 | 74 | 164 | 2.0 | 6.0 | 0.00 | 0.00 | 0.00 | 67 | 1013.3 |
| 20260510050552 | 74 | 146 | 4.0 | 6.0 | 0.00 | 0.00 | 0.00 | 66 | 1013.3 |
| 20260510050056 | 74 | 154 | 2.0 | 6.0 | 0.00 | 0.00 | 0.00 | 66 | 1013.4 |
| 20260510045551 | 74 | 148 | 3.0 | 7.0 | 0.00 | 0.00 | 0.00 | 66 | 1013.4 |
| 20260510045052 | 74 | 146 | 3.0 | 6.0 | 0.00 | 0.00 | 0.00 | 66 | 1013.2 |
| 20260510044551 | 75 | 156 | 2.0 | 5.0 | 0.00 | 0.00 | 0.00 | 65 | 1013.3 |
| 20260510044051 | 75 | 169 | 1.0 | 5.0 | 0.00 | 0.00 | 0.00 | 65 | 1013.3 |
| 20260510043550 | 75 | 169 | 1.0 | 5.0 | 0.00 | 0.00 | 0.00 | 65 | 1013.2 |
| 20260510043050 | 75 | 173 | 1.0 | 4.0 | 0.00 | 0.00 | 0.00 | 65 | 1013.1 |
| 20260510042549 | 75 | 175 | 0.0 | 2.0 | 0.00 | 0.00 | 0.00 | 64 | 1013.1 |
| 20260510042049 | 75 | 176 | 0.0 | 2.0 | 0.00 | 0.00 | 0.00 | 64 | 1013.0 |
| 20260510041549 | 75 | 181 | 1.0 | 4.0 | 0.00 | 0.00 | 0.00 | 64 | 1013.0 |
| 20260510041049 | 76 | 130 | 1.0 | 4.0 | 0.00 | 0.00 | 0.00 | 64 | 1012.9 |
| 20260510040548 | 76 | 141 | 1.0 | 5.0 | 0.00 | 0.00 | 0.00 | 64 | 1012.8 |
| 20260510040049 | 76 | 155 | 1.0 | 5.0 | 0.00 | 0.00 | 0.00 | 64 | 1012.8 |
| 20260510035547 | 76 | 148 | 1.0 | 5.0 | 0.00 | 0.00 | 0.00 | 63 | 1012.7 |
| 20260510035046 | 76 | 142 | 1.0 | 5.0 | 0.00 | 0.00 | 0.00 | 63 | 1012.6 |
| 20260510034606 | 77 | 115 | 1.0 | 6.0 | 0.00 | 0.00 | 0.00 | 62 | 1012.6 |
| 20260510034045 | 77 | 115 | 1.0 | 6.0 | 0.00 | 0.00 | 0.00 | 62 | 1012.4 |
| 20260510033546 | 77 | 168 | 1.0 | 9.0 | 0.00 | 0.00 | 0.00 | 61 | 1012.5 |
| 20260510033051 | 77 | 154 | 6.0 | 10.0 | 0.00 | 0.00 | 0.00 | 61 | 1012.4 |
| 20260510032545 | 78 | 144 | 6.0 | 12.0 | 0.00 | 0.00 | 0.00 | 60 | 1012.3 |
| 20260510032045 | 79 | 148 | 7.0 | 12.0 | 0.00 | 0.00 | 0.00 | 57 | 1012.3 |
| 20260510031545 | 80 | 150 | 1.0 | 5.0 | 0.00 | 0.00 | 0.00 | 55 | 1012.2 |
| 20260510031045 | 80 | 71 | 1.0 | 4.0 | 0.00 | 0.00 | 0.00 | 56 | 1012.2 |
| 20260510030544 | 80 | 89 | 1.0 | 3.0 | 0.00 | 0.00 | 0.00 | 56 | 1012.2 |
| 20260510030044 | 81 | 142 | 1.0 | 2.0 | 0.00 | 0.00 | 0.00 | 55 | 1012.1 |
| 20260510025543 | 81 | 135 | 0.0 | 2.0 | 0.00 | 0.00 | 0.00 | 55 | 1012.1 |
| 20260510025043 | 81 | 49 | 0.0 | 2.0 | 0.00 | 0.00 | 0.00 | 54 | 1012.0 |
| 20260510024543 | 82 | 162 | 0.0 | 4.0 | 0.00 | 0.00 | 0.00 | 55 | 1012.1 |
| 20260510024044 | 82 | 143 | 2.0 | 3.0 | 0.00 | 0.00 | 0.00 | 54 | 1012.0 |
| 20260510023542 | 82 | 143 | 2.0 | 4.0 | 0.00 | 0.00 | 0.00 | 53 | 1012.0 |
| 20260510023042 | 82 | 119 | 1.0 | 3.0 | 0.00 | 0.00 | 0.00 | 53 | 1012.0 |
| 20260510022542 | 82 | 165 | 1.0 | 4.0 | 0.00 | 0.00 | 0.00 | 54 | 1012.0 |
| 20260510022042 | 83 | 178 | 2.0 | 4.0 | 0.00 | 0.00 | 0.00 | 53 | 1011.9 |
| 20260510021545 | 83 | 184 | 2.0 | 4.0 | 0.00 | 0.00 | 0.00 | 53 | 1011.9 |
| 20260510021041 | 83 | 233 | 1.0 | 5.0 | 0.00 | 0.00 | 0.00 | 54 | 1011.9 |
| 20260510020541 | 83 | 236 | 2.0 | 5.0 | 0.00 | 0.00 | 0.00 | 52 | 1011.9 |
| 20260510020040 | 83 | 236 | 2.0 | 4.0 | 0.00 | 0.00 | 0.00 | 51 | 1011.9 |
| 20260510015540 | 83 | 258 | 2.0 | 3.0 | 0.00 | 0.00 | 0.00 | 51 | 1012.0 |
| 20260510015041 | 84 | 247 | 2.0 | 3.0 | 0.00 | 0.00 | 0.00 | 50 | 1012.0 |
| 20260510014543 | 84 | 271 | 1.0 | 4.0 | 0.00 | 0.00 | 0.00 | 49 | 1012.0 |
| 20260510014039 | 85 | 269 | 1.0 | 5.0 | 0.00 | 0.00 | 0.00 | 49 | 1012.0 |
| 20260510013540 | 85 | 269 | 2.0 | 5.0 | 0.00 | 0.00 | 0.00 | 49 | 1012.0 |
| 20260510013039 | 85 | 204 | 3.0 | 5.0 | 0.00 | 0.00 | 0.00 | 49 | 1012.1 |
| 20260510012539 | 84 | 234 | 1.0 | 5.0 | 0.00 | 0.00 | 0.00 | 51 | 1012.0 |
| 20260510012037 | 84 | 220 | 1.0 | 6.0 | 0.00 | 0.00 | 0.00 | 49 | 1012.0 |
| 20260510011538 | 84 | 204 | 3.0 | 6.0 | 0.00 | 0.00 | 0.00 | 50 | 1012.1 |
| 20260510011036 | 84 | 202 | 4.0 | 6.0 | 0.00 | 0.00 | 0.00 | 49 | 1012.1 |
| 20260510010536 | 85 | 202 | 2.0 | 6.0 | 0.00 | 0.00 | 0.00 | 50 | 1012.1 |
| 20260510010039 | 84 | 214 | 2.0 | 6.0 | 0.00 | 0.00 | 0.00 | 50 | 1012.2 |
| 20260510005536 | 84 | 254 | 2.0 | 6.0 | 0.00 | 0.00 | 0.00 | 51 | 1012.2 |
| 20260510005034 | 84 | 204 | 3.0 | 6.0 | 0.00 | 0.00 | 0.00 | 52 | 1012.3 |
| 20260510004534 | 84 | 163 | 3.0 | 5.0 | 0.00 | 0.00 | 0.00 | 50 | 1012.3 |
| 20260510004034 | 84 | 189 | 0.0 | 7.0 | 0.00 | 0.00 | 0.00 | 51 | 1012.3 |
| 20260510003534 | 84 | 189 | 3.0 | 8.0 | 0.00 | 0.00 | 0.00 | 50 | 1012.3 |
| 20260510003036 | 85 | 188 | 3.0 | 8.0 | 0.00 | 0.00 | 0.00 | 50 | 1012.3 |
| 20260510002534 | 85 | 190 | 0.0 | 6.0 | 0.00 | 0.00 | 0.00 | 52 | 1012.3 |
| 20260510002032 | 85 | 188 | 1.0 | 6.0 | 0.00 | 0.00 | 0.00 | 51 | 1012.4 |
| 20260510001532 | 84 | 178 | 1.0 | 6.0 | 0.00 | 0.00 | 0.00 | 51 | 1012.5 |
| 20260510001032 | 84 | 132 | 3.0 | 8.0 | 0.00 | 0.00 | 0.00 | 50 | 1012.5 |
| 20260510000531 | 84 | 192 | 4.0 | 8.0 | 0.00 | 0.00 | 0.00 | 51 | 1012.5 |
| 20260510000030 | 84 | 157 | 3.0 | 6.0 | 0.00 | 0.00 | 0.00 | 51 | 1012.6 |
| 20260509235529 | 85 | 189 | 4.0 | 6.0 | 0.00 | 0.00 | 0.00 | 51 | 1012.6 |
| 20260509235029 | 85 | 261 | 1.0 | 5.0 | 0.00 | 0.00 | 0.00 | 51 | 1012.6 |
| 20260509234529 | 85 | 255 | 2.0 | 5.0 | 0.00 | 0.00 | 0.00 | 51 | 1012.8 |
| 20260509234030 | 84 | 222 | 1.0 | 6.0 | 0.00 | 0.00 | 0.00 | 54 | 1012.7 |
| 20260509233529 | 84 | 230 | 4.0 | 7.0 | 0.00 | 0.00 | 0.00 | 53 | 1012.7 |
| 20260509233028 | 85 | 201 | 4.0 | 7.0 | 0.00 | 0.00 | 0.00 | 51 | 1012.8 |
| 20260509232528 | 84 | 257 | 1.0 | 6.0 | 0.00 | 0.00 | 0.00 | 54 | 1012.7 |
| 20260509232028 | 84 | 193 | 1.0 | 7.0 | 0.00 | 0.00 | 0.00 | 53 | 1012.7 |
| 20260509231527 | 84 | 219 | 3.0 | 7.0 | 0.00 | 0.00 | 0.00 | 51 | 1012.8 |
| 20260509231026 | 85 | 252 | 3.0 | 6.0 | 0.00 | 0.00 | 0.00 | 51 | 1012.8 |
| 20260509230525 | 84 | 261 | 1.0 | 6.0 | 0.00 | 0.00 | 0.00 | 53 | 1012.9 |
| 20260509230025 | 84 | 265 | 2.0 | 8.0 | 0.00 | 0.00 | 0.00 | 54 | 1013.1 |
| 20260509225524 | 83 | 214 | 4.0 | 8.0 | 0.00 | 0.00 | 0.00 | 54 | 1013.1 |
| 20260509225023 | 83 | 253 | 6.0 | 8.0 | 0.00 | 0.00 | 0.00 | 55 | 1013.3 |
| 20260509224523 | 83 | 210 | 4.0 | 7.0 | 0.00 | 0.00 | 0.00 | 55 | 1013.3 |
| 20260509224023 | 83 | 257 | 5.0 | 7.0 | 0.00 | 0.00 | 0.00 | 55 | 1013.4 |
| 20260509223523 | 82 | 236 | 3.0 | 10.0 | 0.00 | 0.00 | 0.00 | 54 | 1013.3 |
| 20260509223023 | 83 | 235 | 6.0 | 10.0 | 0.00 | 0.00 | 0.00 | 52 | 1013.4 |
| 20260509222521 | 84 | 217 | 2.0 | 6.0 | 0.00 | 0.00 | 0.00 | 54 | 1013.4 |
| 20260509222020 | 84 | 261 | 2.0 | 5.0 | 0.00 | 0.00 | 0.00 | 52 | 1013.5 |
| 20260509221519 | 84 | 273 | 1.0 | 7.0 | 0.00 | 0.00 | 0.00 | 53 | 1013.5 |
| 20260509221018 | 84 | 280 | 2.0 | 7.0 | 0.00 | 0.00 | 0.00 | 54 | 1013.5 |
| 20260509220516 | 83 | 292 | 1.0 | 7.0 | 0.00 | 0.00 | 0.00 | 54 | 1013.5 |
| 20260509220015 | 82 | 250 | 2.0 | 8.0 | 0.00 | 0.00 | 0.00 | 56 | 1013.5 |
| 20260509215518 | 81 | 164 | 3.0 | 8.0 | 0.00 | 0.00 | 0.00 | 56 | 1013.4 |
| 20260509215014 | 82 | 204 | 3.0 | 7.0 | 0.00 | 0.00 | 0.00 | 56 | 1013.5 |
| 20260509214513 | 82 | 129 | 2.0 | 7.0 | 0.00 | 0.00 | 0.00 | 54 | 1013.7 |
| 20260509214015 | 82 | 180 | 4.0 | 7.0 | 0.00 | 0.00 | 0.00 | 55 | 1013.7 |
| 20260509213512 | 81 | 207 | 2.0 | 9.0 | 0.00 | 0.00 | 0.00 | 56 | 1013.7 |
| 20260509213014 | 82 | 227 | 5.0 | 9.0 | 0.00 | 0.00 | 0.00 | 56 | 1013.7 |
| 20260509212510 | 82 | 250 | 1.0 | 7.0 | 0.00 | 0.00 | 0.00 | 56 | 1013.8 |
| 20260509212009 | 81 | 111 | 2.0 | 7.0 | 0.00 | 0.00 | 0.00 | 55 | 1013.9 |
| 20260509211508 | 80 | 229 | 3.0 | 7.0 | 0.00 | 0.00 | 0.00 | 57 | 1014.0 |
| 20260509211008 | 81 | 222 | 3.0 | 8.0 | 0.00 | 0.00 | 0.00 | 55 | 1014.0 |
| 20260509210506 | 81 | 267 | 2.0 | 9.0 | 0.00 | 0.00 | 0.00 | 60 | 1014.1 |
| 20260509210006 | 80 | 228 | 6.0 | 9.0 | 0.00 | 0.00 | 0.00 | 60 | 1014.1 |
| 20260509205504 | 80 | 198 | 4.0 | 8.0 | 0.00 | 0.00 | 0.00 | 59 | 1014.2 |
| 20260509205005 | 79 | 76 | 1.0 | 9.0 | 0.00 | 0.00 | 0.00 | 57 | 1014.2 |
| 20260509204510 | 80 | 273 | 3.0 | 9.0 | 0.00 | 0.00 | 0.00 | 57 | 1014.3 |
| 20260509204003 | 80 | 264 | 1.0 | 7.0 | 0.00 | 0.00 | 0.00 | 59 | 1014.3 |
| 20260509203503 | 78 | 244 | 2.0 | 9.0 | 0.00 | 0.00 | 0.00 | 59 | 1014.4 |
| 20260509203005 | 79 | 221 | 6.0 | 10.0 | 0.00 | 0.00 | 0.00 | 59 | 1014.4 |
| 20260509202502 | 79 | 197 | 6.0 | 8.0 | 0.00 | 0.00 | 0.00 | 59 | 1014.4 |
| 20260509202105 | 79 | 152 | 2.0 | 7.0 | 0.00 | 0.00 | 0.00 | 57 | 1014.4 |
| 20260509201501 | 78 | 250 | 2.0 | 9.0 | 0.00 | 0.00 | 0.00 | 61 | 1014.4 |
| 20260509201102 | 78 | 248 | 4.0 | 9.0 | 0.00 | 0.00 | 0.00 | 60 | 1014.5 |
| 20260509200559 | 79 | 222 | 6.0 | 9.0 | 0.00 | 0.00 | 0.00 | 59 | 1014.5 |
| 20260509200110 | 79 | 269 | 4.0 | 6.0 | 0.00 | 0.00 | 0.00 | 60 | 1014.5 |
| 20260509195600 | 78 | 315 | 1.0 | 6.0 | 0.00 | 0.00 | 0.00 | 61 | 1014.6 |
| 20260509195056 | 77 | 240 | 3.0 | 9.0 | 0.00 | 0.00 | 0.00 | 60 | 1014.6 |
| 20260509194558 | 78 | 291 | 3.0 | 9.0 | 0.00 | 0.00 | 0.00 | 61 | 1014.7 |
| 20260509194057 | 78 | 282 | 4.0 | 7.0 | 0.00 | 0.00 | 0.00 | 61 | 1014.7 |
| 20260509193555 | 77 | 273 | 1.0 | 9.0 | 0.00 | 0.00 | 0.00 | 61 | 1014.7 |
| 20260509193056 | 78 | 213 | 6.0 | 9.0 | 0.00 | 0.00 | 0.00 | 61 | 1014.7 |
| 20260509192554 | 78 | 289 | 0.0 | 7.0 | 0.00 | 0.00 | 0.00 | 61 | 1014.9 |
| 20260509192055 | 77 | 215 | 2.0 | 7.0 | 0.00 | 0.00 | 0.00 | 62 | 1015.0 |
| 20260509191552 | 77 | 303 | 2.0 | 6.0 | 0.00 | 0.00 | 0.00 | 60 | 1015.1 |
| 20260509191053 | 77 | 266 | 2.0 | 6.0 | 0.00 | 0.00 | 0.00 | 62 | 1015.3 |
| 20260509190550 | 76 | 277 | 1.0 | 8.0 | 0.00 | 0.00 | 0.00 | 62 | 1015.1 |
| 20260509190049 | 75 | 223 | 4.0 | 9.0 | 0.00 | 0.00 | 0.00 | 64 | 1015.2 |
| 20260509185548 | 76 | 232 | 4.0 | 9.0 | 0.00 | 0.00 | 0.00 | 64 | 1015.2 |
| 20260509185048 | 75 | 184 | 1.0 | 7.0 | 0.00 | 0.00 | 0.00 | 64 | 1015.2 |
| 20260509184548 | 75 | 221 | 1.0 | 7.0 | 0.00 | 0.00 | 0.00 | 65 | 1015.3 |
| 20260509184046 | 74 | 234 | 4.0 | 8.0 | 0.00 | 0.00 | 0.00 | 64 | 1015.4 |
| 20260509183546 | 75 | 205 | 5.0 | 8.0 | 0.00 | 0.00 | 0.00 | 64 | 1015.4 |
| 20260509183101 | 75 | 229 | 5.0 | 7.0 | 0.00 | 0.00 | 0.00 | 64 | 1015.4 |
| 20260509182546 | 74 | 273 | 0.0 | 8.0 | 0.00 | 0.00 | 0.00 | 64 | 1015.4 |
| 20260509182045 | 75 | 265 | 3.0 | 8.0 | 0.00 | 0.00 | 0.00 | 64 | 1015.6 |
| 20260509181546 | 75 | 260 | 3.0 | 7.0 | 0.00 | 0.00 | 0.00 | 66 | 1015.6 |
| 20260509181044 | 74 | 262 | 2.0 | 6.0 | 0.00 | 0.00 | 0.00 | 67 | 1015.5 |
| 20260509180546 | 74 | 278 | 2.0 | 6.0 | 0.00 | 0.00 | 0.00 | 68 | 1015.6 |
| 20260509180039 | 73 | 206 | 2.0 | 7.0 | 0.00 | 0.00 | 0.00 | 67 | 1015.6 |
| 20260509175538 | 73 | 217 | 4.0 | 7.0 | 0.00 | 0.00 | 0.00 | 66 | 1015.5 |
| 20260509175038 | 73 | 229 | 2.0 | 5.0 | 0.00 | 0.00 | 0.00 | 67 | 1015.5 |
| 20260509174547 | 72 | 261 | 2.0 | 7.0 | 0.00 | 0.00 | 0.00 | 66 | 1015.7 |
| 20260509174038 | 73 | 360 | 4.0 | 7.0 | 0.00 | 0.00 | 0.00 | 64 | 1015.6 |
| 20260509173536 | 73 | 340 | 0.0 | 6.0 | 0.00 | 0.00 | 0.00 | 67 | 1015.6 |
| 20260509173039 | 72 | 269 | 0.0 | 6.0 | 0.00 | 0.00 | 0.00 | 67 | 1015.7 |
| 20260509172535 | 71 | 269 | 3.0 | 6.0 | 0.00 | 0.00 | 0.00 | 67 | 1015.6 |
| 20260509172036 | 72 | 228 | 1.0 | 6.0 | 0.00 | 0.00 | 0.00 | 67 | 1015.6 |
| 20260509171541 | 72 | 237 | 3.0 | 6.0 | 0.00 | 0.00 | 0.00 | 70 | 1015.7 |
| 20260509171033 | 71 | 277 | 1.0 | 3.0 | 0.00 | 0.00 | 0.00 | 70 | 1015.6 |
| 20260509170531 | 70 | 300 | 0.0 | 5.0 | 0.00 | 0.00 | 0.00 | 70 | 1015.6 |
| 20260509170032 | 70 | 218 | 2.0 | 7.0 | 0.00 | 0.00 | 0.00 | 70 | 1015.7 |
| 20260509165528 | 69 | 260 | 1.0 | 7.0 | 0.00 | 0.00 | 0.00 | 71 | 1015.6 |
| 20260509165028 | 69 | 271 | 4.0 | 7.0 | 0.00 | 0.00 | 0.00 | 72 | 1015.6 |
| 20260509164528 | 69 | 229 | 0.0 | 7.0 | 0.00 | 0.00 | 0.00 | 75 | 1015.5 |
| 20260509164027 | 69 | 257 | 1.0 | 5.0 | 0.00 | 0.00 | 0.00 | 74 | 1015.6 |
| 20260509163530 | 68 | 221 | 3.0 | 5.0 | 0.00 | 0.00 | 0.00 | 73 | 1015.6 |
| 20260509163041 | 68 | 236 | 2.0 | 5.0 | 0.00 | 0.00 | 0.00 | 73 | 1015.7 |
| 20260509162529 | 67 | 253 | 2.0 | 5.0 | 0.00 | 0.00 | 0.00 | 74 | 1015.7 |
| 20260509162028 | 67 | 260 | 2.0 | 5.0 | 0.00 | 0.00 | 0.00 | 72 | 1015.7 |
| 20260509161532 | 67 | 166 | 3.0 | 4.0 | 0.00 | 0.00 | 0.00 | 73 | 1015.8 |
| 20260509161026 | 67 | 220 | 2.0 | 5.0 | 0.00 | 0.00 | 0.00 | 74 | 1015.7 |
| 20260509160526 | 66 | 205 | 1.0 | 5.0 | 0.00 | 0.00 | 0.00 | 75 | 1015.7 |
| 20260509160028 | 66 | 246 | 3.0 | 5.0 | 0.00 | 0.00 | 0.00 | 74 | 1015.7 |
| 20260509155524 | 66 | 245 | 3.0 | 5.0 | 0.00 | 0.00 | 0.00 | 75 | 1015.7 |
| 20260509155024 | 66 | 273 | 1.0 | 4.0 | 0.00 | 0.00 | 0.00 | 75 | 1015.7 |
| 20260509154524 | 66 | 328 | 1.0 | 3.0 | 0.00 | 0.00 | 0.00 | 76 | 1015.6 |
| 20260509154026 | 65 | 344 | 1.0 | 4.0 | 0.00 | 0.00 | 0.00 | 77 | 1015.6 |
| 20260509153524 | 65 | 301 | 0.0 | 4.0 | 0.00 | 0.00 | 0.00 | 77 | 1015.5 |
| 20260509153041 | 64 | 261 | 1.0 | 4.0 | 0.00 | 0.00 | 0.00 | 77 | 1015.5 |
| 20260509152524 | 64 | 275 | 1.0 | 4.0 | 0.00 | 0.00 | 0.00 | 77 | 1015.6 |
| 20260509152024 | 64 | 360 | 0.0 | 4.0 | 0.00 | 0.00 | 0.00 | 79 | 1015.6 |
| 20260509151523 | 63 | 346 | 1.0 | 4.0 | 0.00 | 0.00 | 0.00 | 79 | 1015.7 |
| 20260509151023 | 63 | 327 | 0.0 | 2.0 | 0.00 | 0.00 | 0.00 | 79 | 1015.6 |
| 20260509150525 | 63 | 322 | 0.0 | 2.0 | 0.00 | 0.00 | 0.00 | 80 | 1015.6 |
| 20260509150033 | 62 | 286 | 0.0 | 2.0 | 0.00 | 0.00 | 0.00 | 81 | 1015.7 |
| 20260509145522 | 62 | 5 | 0.0 | 1.0 | 0.00 | 0.00 | 0.00 | 82 | 1015.6 |
| 20260509145022 | 61 | 5 | 0.0 | 1.0 | 0.00 | 0.00 | 0.00 | 83 | 1015.6 |
| 20260509144521 | 61 | 17 | 0.0 | 1.0 | 0.00 | 0.00 | 0.00 | 83 | 1015.6 |
| 20260509144021 | 61 | 17 | 0.0 | 1.0 | 0.00 | 0.00 | 0.00 | 83 | 1015.6 |
| 20260509143521 | 61 | 13 | 0.0 | 1.0 | 0.00 | 0.00 | 0.00 | 83 | 1015.7 |
| 20260509143021 | 60 | 42 | 0.0 | 1.0 | 0.00 | 0.00 | 0.00 | 83 | 1015.5 |
| 20260509142520 | 60 | 116 | 0.0 | 1.0 | 0.00 | 0.00 | 0.00 | 82 | 1015.5 |
| 20260509142022 | 60 | 87 | 0.0 | 1.0 | 0.00 | 0.00 | 0.00 | 83 | 1015.5 |
| 20260509141520 | 60 | 52 | 0.0 | 1.0 | 0.00 | 0.00 | 0.00 | 83 | 1015.4 |
| 20260509141019 | 60 | 50 | 0.0 | 1.0 | 0.00 | 0.00 | 0.00 | 83 | 1015.4 |
| 20260509140520 | 60 | 51 | 0.0 | 1.0 | 0.00 | 0.00 | 0.00 | 83 | 1015.4 |
| 20260509140020 | 59 | 69 | 0.0 | 1.0 | 0.00 | 0.00 | 0.00 | 82 | 1015.4 |
| 20260509135519 | 59 | 44 | 0.0 | 2.0 | 0.00 | 0.00 | 0.00 | 82 | 1015.5 |
| 20260509135020 | 59 | 74 | 0.0 | 2.0 | 0.00 | 0.00 | 0.00 | 82 | 1015.3 |
| 20260509134518 | 59 | 89 | 0.0 | 4.0 | 0.00 | 0.00 | 0.00 | 83 | 1015.4 |
| 20260509134018 | 59 | 132 | 1.0 | 4.0 | 0.00 | 0.00 | 0.00 | 83 | 1015.3 |
| 20260509133518 | 59 | 113 | 0.0 | 2.0 | 0.00 | 0.00 | 0.00 | 83 | 1015.3 |
| 20260509133018 | 59 | 97 | 0.0 | 2.0 | 0.00 | 0.00 | 0.00 | 83 | 1015.3 |
| 20260509132518 | 59 | 105 | 0.0 | 2.0 | 0.00 | 0.00 | 0.00 | 84 | 1015.3 |
| 20260509132017 | 59 | 96 | 0.0 | 2.0 | 0.00 | 0.00 | 0.00 | 86 | 1015.3 |
| 20260509131523 | 59 | 33 | 0.0 | 4.0 | 0.00 | 0.00 | 0.00 | 86 | 1015.2 |
| 20260509131016 | 59 | 26 | 0.0 | 4.0 | 0.00 | 0.00 | 0.00 | 87 | 1015.3 |
| 20260509130518 | 59 | 73 | 0.0 | 1.0 | 0.00 | 0.00 | 0.00 | 87 | 1015.3 |
| 20260509130016 | 59 | 47 | 0.0 | 1.0 | 0.00 | 0.00 | 0.00 | 87 | 1015.3 |
| 20260509125521 | 59 | 341 | 0.0 | 2.0 | 0.00 | 0.00 | 0.00 | 87 | 1015.4 |
| 20260509125019 | 59 | 341 | 0.0 | 4.0 | 0.00 | 0.00 | 0.00 | 87 | 1015.3 |
| 20260509124514 | 59 | 341 | 1.0 | 5.0 | 0.00 | 0.00 | 0.00 | 87 | 1015.3 |
| 20260509124014 | 59 | 341 | 3.0 | 5.0 | 0.00 | 0.00 | 0.00 | 87 | 1015.4 |
| 20260509123513 | 59 | 347 | 3.0 | 5.0 | 0.00 | 0.00 | 0.00 | 86 | 1015.4 |
| 20260509123012 | 59 | 347 | 3.0 | 4.0 | 0.00 | 0.00 | 0.00 | 85 | 1015.3 |
| 20260509122512 | 60 | 347 | 1.0 | 3.0 | 0.00 | 0.00 | 0.00 | 84 | 1015.3 |
| 20260509122010 | 60 | 347 | 2.0 | 5.0 | 0.00 | 0.00 | 0.00 | 83 | 1015.3 |
| 20260509121512 | 60 | 360 | 1.0 | 5.0 | 0.00 | 0.00 | 0.00 | 82 | 1015.3 |
| 20260509121007 | 61 | 38 | 0.0 | 2.0 | 0.00 | 0.00 | 0.00 | 81 | 1015.2 |
| 20260509120507 | 61 | 38 | 1.0 | 2.0 | 0.00 | 0.00 | 0.00 | 81 | 1015.2 |
| 20260509120005 | 61 | 38 | 0.0 | 2.0 | 0.00 | 0.00 | 0.00 | 81 | 1015.1 |
| 20260509115505 | 61 | 38 | 1.0 | 4.0 | 0.00 | 0.00 | 0.00 | 80 | 1015.1 |
| 20260509115005 | 61 | 38 | 1.0 | 4.0 | 0.00 | 0.00 | 0.00 | 79 | 1015.0 |
| 20260509114509 | 62 | 47 | 1.0 | 2.0 | 0.00 | 0.00 | 0.00 | 79 | 1015.0 |
| 20260509114003 | 62 | 47 | 0.0 | 0.0 | 0.00 | 0.00 | 0.00 | 78 | 1014.9 |
| 20260509113504 | 62 | 47 | 0.0 | 0.0 | 0.00 | 0.00 | 0.00 | 78 | 1014.8 |
| 20260509113003 | 62 | 47 | 0.0 | 2.0 | 0.00 | 0.00 | 0.00 | 78 | 1014.8 |
| 20260509112502 | 62 | 47 | 0.0 | 4.0 | 0.00 | 0.00 | 0.00 | 78 | 1014.8 |
| 20260509112002 | 63 | 46 | 0.0 | 4.0 | 0.00 | 0.00 | 0.00 | 78 | 1014.7 |
| 20260509111502 | 63 | 46 | 0.0 | 4.0 | 0.00 | 0.00 | 0.00 | 79 | 1014.7 |
| 20260509111001 | 63 | 51 | 0.0 | 4.0 | 0.00 | 0.00 | 0.00 | 80 | 1014.7 |
| 20260509110601 | 62 | 50 | 0.0 | 2.0 | 0.00 | 0.00 | 0.00 | 80 | 1014.6 |
| 20260509110059 | 62 | 50 | 0.0 | 1.0 | 0.00 | 0.00 | 0.00 | 81 | 1014.6 |
| 20260509105558 | 62 | 50 | 0.0 | 0.0 | 0.00 | 0.00 | 0.00 | 80 | 1014.7 |
| 20260509105058 | 62 | 50 | 0.0 | 0.0 | 0.00 | 0.00 | 0.00 | 81 | 1014.7 |
| 20260509104559 | 62 | 50 | 0.0 | 0.0 | 0.00 | 0.00 | 0.00 | 80 | 1014.8 |
| 20260509104057 | 62 | 50 | 0.0 | 1.0 | 0.00 | 0.00 | 0.00 | 81 | 1014.7 |
| 20260509103556 | 62 | 50 | 0.0 | 2.0 | 0.00 | 0.00 | 0.00 | 81 | 1014.8 |
| 20260509103102 | 62 | 50 | 1.0 | 2.0 | 0.00 | 0.00 | 0.00 | 81 | 1014.7 |
| 20260509102554 | 63 | 50 | 0.0 | 1.0 | 0.00 | 0.00 | 0.00 | 80 | 1014.8 |
| 20260509102054 | 63 | 50 | 0.0 | 1.0 | 0.00 | 0.00 | 0.00 | 80 | 1014.8 |
| 20260509101553 | 63 | 50 | 0.0 | 2.0 | 0.00 | 0.00 | 0.00 | 79 | 1015.0 |
| 20260509101052 | 64 | 50 | 0.0 | 2.0 | 0.00 | 0.00 | 0.00 | 78 | 1015.0 |
| 20260509100550 | 64 | 50 | 0.0 | 1.0 | 0.00 | 0.00 | 0.00 | 78 | 1015.0 |
| 20260509100055 | 64 | 50 | 0.0 | 1.0 | 0.00 | 0.00 | 0.00 | 78 | 1015.0 |
| 20260509095550 | 64 | 50 | 0.0 | 1.0 | 0.00 | 0.00 | 0.00 | 78 | 1015.0 |
| 20260509095048 | 64 | 49 | 0.0 | 1.0 | 0.00 | 0.00 | 0.00 | 78 | 1015.0 |
| 20260509094548 | 64 | 49 | 0.0 | 1.0 | 0.00 | 0.00 | 0.00 | 78 | 1015.0 |
| 20260509094047 | 64 | 49 | 0.0 | 1.0 | 0.00 | 0.00 | 0.00 | 78 | 1015.1 |
| 20260509093545 | 64 | 50 | 0.0 | 2.0 | 0.00 | 0.00 | 0.00 | 77 | 1015.1 |
| 20260509093046 | 65 | 49 | 0.0 | 2.0 | 0.00 | 0.00 | 0.00 | 76 | 1015.2 |
| 20260509092546 | 65 | 51 | 0.0 | 4.0 | 0.00 | 0.00 | 0.00 | 76 | 1015.1 |
| 20260509092043 | 65 | 51 | 0.0 | 5.0 | 0.00 | 0.00 | 0.00 | 76 | 1015.2 |
| 20260509091642 | 65 | 50 | 1.0 | 5.0 | 0.00 | 0.00 | 0.00 | 76 | 1015.2 |
| 20260509091043 | 66 | 53 | 0.0 | 2.0 | 0.00 | 0.00 | 0.00 | 75 | 1015.3 |
| 20260509090541 | 66 | 53 | 0.0 | 4.0 | 0.00 | 0.00 | 0.00 | 75 | 1015.3 |
| 20260509090048 | 66 | 53 | 0.0 | 4.0 | 0.00 | 0.00 | 0.00 | 74 | 1015.3 |
| 20260509085538 | 66 | 53 | 1.0 | 6.0 | 0.00 | 0.00 | 0.00 | 74 | 1015.4 |
| 20260509085038 | 66 | 51 | 3.0 | 6.0 | 0.00 | 0.00 | 0.00 | 74 | 1015.3 |
| 20260509084538 | 66 | 57 | 4.0 | 5.0 | 0.00 | 0.00 | 0.00 | 74 | 1015.3 |
| 20260509084037 | 66 | 49 | 1.0 | 5.0 | 0.00 | 0.00 | 0.00 | 74 | 1015.4 |
| 20260509083535 | 67 | 51 | 0.0 | 6.0 | 0.00 | 0.00 | 0.00 | 74 | 1015.4 |
| 20260509083036 | 67 | 50 | 3.0 | 6.0 | 0.00 | 0.00 | 0.00 | 74 | 1015.4 |
| 20260509082535 | 67 | 51 | 2.0 | 5.0 | 0.00 | 0.00 | 0.00 | 74 | 1015.5 |
| 20260509082034 | 67 | 49 | 0.0 | 2.0 | 0.00 | 0.00 | 0.00 | 75 | 1015.5 |
| 20260509081533 | 67 | 49 | 0.0 | 5.0 | 0.00 | 0.00 | 0.00 | 74 | 1015.6 |
| 20260509081032 | 67 | 44 | 2.0 | 5.0 | 0.00 | 0.00 | 0.00 | 74 | 1015.7 |
| 20260509080532 | 67 | 51 | 3.0 | 5.0 | 0.00 | 0.00 | 0.00 | 75 | 1015.6 |
| 20260509080032 | 67 | 51 | 0.0 | 4.0 | 0.00 | 0.00 | 0.00 | 75 | 1015.7 |
| 20260509075530 | 67 | 54 | 0.0 | 0.0 | 0.00 | 0.00 | 0.00 | 74 | 1015.8 |
| 20260509075029 | 68 | 54 | 0.0 | 0.0 | 0.00 | 0.00 | 0.00 | 73 | 1015.7 |
| 20260509074529 | 68 | 54 | 0.0 | 4.0 | 0.00 | 0.00 | 0.00 | 73 | 1015.8 |
| 20260509074034 | 68 | 54 | 0.0 | 6.0 | 0.00 | 0.00 | 0.00 | 73 | 1015.7 |
| 20260509073531 | 68 | 53 | 4.0 | 6.0 | 0.00 | 0.00 | 0.00 | 73 | 1015.8 |
| 20260509073027 | 68 | 52 | 2.0 | 5.0 | 0.00 | 0.00 | 0.00 | 74 | 1015.8 |
| 20260509072528 | 68 | 51 | 3.0 | 5.0 | 0.00 | 0.00 | 0.00 | 74 | 1015.8 |
| 20260509072027 | 68 | 48 | 3.0 | 5.0 | 0.00 | 0.00 | 0.00 | 74 | 1015.8 |
| 20260509071526 | 68 | 51 | 4.0 | 5.0 | 0.00 | 0.00 | 0.00 | 74 | 1015.7 |
| 20260509071025 | 68 | 42 | 4.0 | 5.0 | 0.00 | 0.00 | 0.00 | 74 | 1015.7 |
| 20260509070525 | 68 | 128 | 1.0 | 4.0 | 0.00 | 0.00 | 0.00 | 74 | 1015.6 |
| 20260509070024 | 68 | 143 | 0.0 | 1.0 | 0.00 | 0.00 | 0.00 | 74 | 1015.6 |
| 20260509065523 | 68 | 143 | 0.0 | 1.0 | 0.00 | 0.00 | 0.00 | 74 | 1015.6 |
| 20260509065023 | 68 | 143 | 0.0 | 2.0 | 0.00 | 0.00 | 0.00 | 74 | 1015.5 |
| 20260509064523 | 68 | 143 | 0.0 | 2.0 | 0.00 | 0.00 | 0.00 | 74 | 1015.5 |
| 20260509064024 | 69 | 143 | 0.0 | 1.0 | 0.00 | 0.00 | 0.00 | 74 | 1015.6 |
| 20260509063527 | 69 | 143 | 0.0 | 1.0 | 0.00 | 0.00 | 0.00 | 74 | 1015.7 |
| 20260509063026 | 69 | 143 | 0.0 | 1.0 | 0.00 | 0.00 | 0.00 | 74 | 1015.7 |